Location: Unspecified
(0.0000°N, 0.0000°E)
Time: 06:31:38
(UTC+00:00)

Vanguard 2 Rocket - Pass Details

Date: 23 November 2019
Orbit: 554 x 3326 km, 32.9° (Epoch: 11 December)

Event Time Altitude Azimuth Distance (km) Brightness Sun altitude
Rises 07:34:10 0° 303° (WNW) 4,501 9.9 25.2°
Reaches altitude 10° 07:36:37 10° 302° (WNW) 3,806 9.6 25.7°
Maximum altitude 07:47:24 83° 215° (SW) 2,347 9.4 28.2°
Drops below altitude 10° 08:05:53 10° 128° (SE) 6,109 12.5 32.4°
Sets 08:11:03 0° 127° (SE) 7,272 12.5 33.6°
